TimeEST,TemperatureF,Dew PointF,Humidity,Sea Level PressureIn,VisibilityMPH,Wind Direction,Wind SpeedMPH,Gust SpeedMPH,PrecipitationIn,Events,Conditions,WindDirDegrees,DateUTC
12:16 AM,32.0,28.4,87,30.13,7.0,SSE,9.2,-,N/A,,Overcast,160,2013-01-28 05:16:00
12:36 AM,33.8,30.2,87,30.13,4.0,SSE,3.5,-,N/A,,Overcast,150,2013-01-28 05:36:00
12:51 AM,33.8,30.2,87,30.11,2.0,SSE,8.1,-,N/A,Snow,Snow,150,2013-01-28 05:51:00
1:11 AM,33.8,30.2,87,30.09,3.0,SSE,10.4,-,N/A,,Overcast,150,2013-01-28 06:11:00
1:31 AM,33.8,30.2,87,30.09,2.5,SSE,6.9,-,N/A,Snow,Light Snow,150,2013-01-28 06:31:00
1:51 AM,33.8,32.0,93,30.07,7.0,SSE,9.2,-,N/A,,Overcast,150,2013-01-28 06:51:00
2:11 AM,33.8,32.0,93,30.05,7.0,SE,6.9,-,N/A,,Overcast,140,2013-01-28 07:11:00
2:31 AM,33.8,32.0,93,30.05,5.0,SSE,8.1,-,N/A,,Overcast,150,2013-01-28 07:31:00
2:51 AM,33.8,32.0,93,30.04,4.0,SE,5.8,-,N/A,,Overcast,140,2013-01-28 07:51:00
3:11 AM,33.8,33.8,100,30.03,3.0,SSE,6.9,-,N/A,,Overcast,150,2013-01-28 08:11:00
3:52 AM,33.8,33.8,100,30.00,1.8,SSE,5.8,-,N/A,,Overcast,160,2013-01-28 08:52:00
4:12 AM,33.8,33.8,100,30.00,1.8,South,4.6,-,N/A,,Overcast,180,2013-01-28 09:12:00
4:32 AM,35.6,35.6,100,29.99,2.5,South,5.8,-,N/A,,Overcast,190,2013-01-28 09:32:00
5:12 AM,35.6,35.6,100,29.97,2.0,South,10.4,-,N/A,,Overcast,190,2013-01-28 10:12:00
5:32 AM,35.6,35.6,100,29.96,2.0,South,8.1,-,N/A,,Overcast,190,2013-01-28 10:32:00
5:52 AM,35.6,35.6,100,29.95,1.8,South,6.9,-,N/A,,Overcast,190,2013-01-28 10:52:00
6:12 AM,35.6,35.6,100,29.94,2.0,South,8.1,-,N/A,,Overcast,190,2013-01-28 11:12:00
6:33 AM,35.6,35.6,100,29.93,1.5,South,8.1,-,N/A,,Light Drizzle,180,2013-01-28 11:33:00
6:53 AM,37.4,35.6,93,29.93,1.5,South,6.9,-,N/A,,Drizzle,190,2013-01-28 11:53:00
7:13 AM,37.4,37.4,100,29.92,1.2,South,8.1,-,N/A,,Overcast,190,2013-01-28 12:13:00
7:33 AM,37.4,37.4,100,29.91,1.2,South,9.2,-,N/A,,Overcast,190,2013-01-28 12:33:00
7:53 AM,37.4,37.4,100,29.91,1.2,SSW,8.1,-,N/A,,Overcast,200,2013-01-28 12:53:00
8:13 AM,39.2,39.2,100,29.91,1.5,SSW,8.1,-,N/A,,Overcast,200,2013-01-28 13:13:00
8:33 AM,39.2,39.2,100,29.90,1.0,SSW,9.2,-,N/A,,Overcast,200,2013-01-28 13:33:00
8:53 AM,41.0,41.0,100,29.89,1.5,SSW,9.2,-,N/A,,Overcast,210,2013-01-28 13:53:00
9:13 AM,42.8,41.0,93,29.89,1.8,SSW,10.4,-,N/A,,Overcast,210,2013-01-28 14:13:00
9:54 AM,42.8,42.8,100,29.89,1.2,SSW,10.4,-,N/A,Rain,Rain,210,2013-01-28 14:54:00
10:14 AM,42.8,42.8,100,29.89,1.2,SW,11.5,-,N/A,Rain,Rain,220,2013-01-28 15:14:00
10:34 AM,44.6,42.8,93,29.89,2.5,SW,15.0,-,N/A,,Drizzle,220,2013-01-28 15:34:00
10:52 AM,44.6,42.8,93,29.89,2.5,SW,15.0,-,N/A,,Overcast,220,2013-01-28 15:52:00
11:12 AM,44.6,44.6,100,29.90,2.5,SW,17.3,23.0,N/A,,Overcast,220,2013-01-28 16:12:00
11:32 AM,46.4,44.6,93,29.90,4.0,SW,17.3,20.7,N/A,,Overcast,230,2013-01-28 16:32:00
11:53 AM,46.4,44.6,93,29.90,2.5,SW,13.8,-,N/A,,Overcast,230,2013-01-28 16:53:00
12:13 PM,46.4,46.4,100,29.89,1.5,SW,17.3,26.5,N/A,,Overcast,230,2013-01-28 17:13:00
12:33 PM,46.4,46.4,100,29.88,1.5,SW,16.1,21.9,N/A,,Overcast,230,2013-01-28 17:33:00
12:53 PM,46.4,46.4,100,29.87,2.5,SW,17.3,24.2,N/A,,Overcast,230,2013-01-28 17:53:00
1:13 PM,48.2,46.4,93,29.87,2.0,SW,18.4,21.9,N/A,,Overcast,230,2013-01-28 18:13:00
1:33 PM,48.2,46.4,93,29.86,3.0,SW,16.1,24.2,N/A,,Overcast,230,2013-01-28 18:33:00
1:53 PM,48.2,46.4,93,29.86,2.5,SW,16.1,21.9,N/A,,Overcast,230,2013-01-28 18:53:00
2:14 PM,48.2,46.4,93,29.86,2.0,SW,17.3,24.2,N/A,,Overcast,230,2013-01-28 19:14:00
2:34 PM,48.2,46.4,93,29.86,2.5,SW,16.1,21.9,N/A,,Overcast,230,2013-01-28 19:34:00
2:54 PM,48.2,46.4,93,29.86,2.5,WSW,15.0,21.9,N/A,,Overcast,240,2013-01-28 19:54:00
3:14 PM,48.2,46.4,93,29.87,2.5,WSW,13.8,19.6,N/A,,Overcast,240,2013-01-28 20:14:00
3:34 PM,48.2,46.4,93,29.87,3.0,WSW,13.8,18.4,N/A,,Overcast,240,2013-01-28 20:34:00
3:54 PM,48.2,48.2,100,29.88,4.0,WSW,15.0,19.6,N/A,,Overcast,240,2013-01-28 20:54:00
4:14 PM,48.2,46.4,93,29.88,3.0,WSW,13.8,-,N/A,,Overcast,240,2013-01-28 21:14:00
4:34 PM,48.2,46.4,93,29.89,2.5,WSW,11.5,17.3,N/A,,Overcast,240,2013-01-28 21:34:00
4:54 PM,48.2,46.4,93,29.90,3.0,WSW,13.8,-,N/A,,Overcast,240,2013-01-28 21:54:00
5:14 PM,48.2,46.4,93,29.91,3.0,WSW,11.5,-,N/A,,Overcast,240,2013-01-28 22:14:00
5:34 PM,48.2,46.4,93,29.92,4.0,WSW,11.5,-,N/A,,Overcast,250,2013-01-28 22:34:00
5:55 PM,48.2,46.4,93,29.92,4.0,West,10.4,-,N/A,,Overcast,260,2013-01-28 22:55:00
6:15 PM,48.2,46.4,93,29.94,3.0,WSW,10.4,-,N/A,,Overcast,250,2013-01-28 23:15:00
6:35 PM,48.2,46.4,93,29.94,2.5,WSW,6.9,-,N/A,,Overcast,250,2013-01-28 23:35:00
6:55 PM,46.4,46.4,100,29.94,1.8,WSW,6.9,-,N/A,,Overcast,250,2013-01-28 23:55:00
7:15 PM,46.4,46.4,100,29.95,1.2,WSW,6.9,-,N/A,,Overcast,250,2013-01-29 00:15:00
7:35 PM,46.4,46.4,100,29.96,0.5,West,3.5,-,N/A,Fog,Fog,260,2013-01-29 00:35:00
7:55 PM,46.4,44.6,93,29.97,0.2,NNW,4.6,-,N/A,Fog,Fog,330,2013-01-29 00:55:00
8:15 PM,46.4,44.6,93,29.98,1.2,NW,4.6,-,N/A,,Overcast,320,2013-01-29 01:15:00
8:35 PM,44.6,44.6,100,29.98,4.0,NNW,8.1,-,N/A,,Overcast,330,2013-01-29 01:35:00
8:56 PM,44.6,42.8,93,29.99,5.0,NW,8.1,-,N/A,,Overcast,310,2013-01-29 01:56:00
9:11 PM,44.6,42.8,93,29.99,5.0,NW,4.6,-,N/A,,Overcast,310,2013-01-29 02:11:00
9:31 PM,42.8,42.8,100,30.00,4.0,NNW,5.8,-,N/A,,Overcast,330,2013-01-29 02:31:00
9:51 PM,42.8,42.8,100,30.00,2.5,NW,4.6,-,N/A,,Overcast,310,2013-01-29 02:51:00
10:11 PM,42.8,41.0,93,30.00,2.5,North,5.8,-,N/A,,Overcast,350,2013-01-29 03:11:00
10:31 PM,41.0,39.2,93,30.00,2.5,North,4.6,-,N/A,,Overcast,350,2013-01-29 03:31:00
10:51 PM,41.0,39.2,93,30.00,2.5,North,3.5,-,N/A,,Overcast,350,2013-01-29 03:51:00
11:11 PM,39.2,39.2,100,30.01,1.2,North,3.5,-,N/A,,Overcast,10,2013-01-29 04:11:00
11:31 PM,39.2,39.2,100,30.01,1.2,Calm,Calm,-,N/A,,Overcast,0,2013-01-29 04:31:00
11:52 PM,39.2,39.2,100,30.01,1.8,Calm,Calm,-,N/A,,Overcast,0,2013-01-29 04:52:00